Location: *
(46.4000°N, 12.6667°E)
Time: 04:12:23
(UTC+00:00)

Envisat - Pass Details

Date: 04 December 2021
Orbit: 764 x 766 km, 98.2° (Epoch: 16 January)

Event Time Altitude Azimuth Distance (km) Brightness Sun altitude
Rises 03:51:16 0° 17° (NNE) 3,244 6.4 -27.5°
Reaches altitude 10° 03:53:39 10° 23° (NNE) 2,313 5.7 -27.1°
Maximum altitude 03:58:37 52° 100° (E) 944 3.7 -26.2°
Drops below altitude 10° 04:03:33 10° 176° (S) 2,295 5.6 -25.4°
Sets 04:05:54 0° 182° (S) 3,216 6.3 -25.0°
